Location: Bédeille
(43.0872°N, 1.1041°E)
Time: 02:32:25
(UTC+00:00)

Cosmos 2333 - Pass Details

Date: 03 February 2023
Orbit: 828 x 867 km, 70.9° (Epoch: 27 March)

Event Time Altitude Azimuth Distance (km) Brightness Sun altitude
Rises 18:31:18 0° 188° (S) 3,355 7.5 -15.1°
Reaches altitude 10° 18:33:46 10° 183° (S) 2,428 6.7 -15.5°
Maximum altitude 18:39:09 52° 109° (ESE) 1,031 4.3 -16.5°
Enters shadow 18:43:25 16° 38° (NE) 2,038 5.8 -17.3°
